Spokane, WA

2:46 AM PST on February 12, 2016 (GMT -0800)
Felts

Weather History for KSFF - October, 2011

Change the Weather History Date:

Tuesday, October 4, 2011

  Actual Average Record
Temperature  
Mean Temperature 51 °F 53 °F  
Max Temperature 56 °F 66 °F 82 °F (2003)
Min Temperature 46 °F 40 °F 32 °F (2000)
Degree Days  
Heating Degree Days 14 12  
Month to date heating degree days 21 46  
Since 1 July heating degree days 141 257  
Cooling Degree Days 0 0  
Month to date cooling degree days 1 0  
Year to date cooling degree days 381 406  
Moisture  
Dew Point 46 °F    
Average Humidity 80    
Maximum Humidity 93    
Minimum Humidity 66    
Precipitation  
Precipitation 0.08 in 0.04 in 0.31 in (2010)
Month to date precipitation 0.12 0.13  
Year to date precipitation 13.44 11.71  
Sea Level Pressure  
Sea Level Pressure 29.71 in    
Wind  
Wind Speed 3 mph (SSE)    
Max Wind Speed 10 mph    
Max Gust Speed 15 mph    
Visibility 10 miles    
Events Rain    
T = Trace of Precipitation, MM = Missing Value Source: NWS Daily Summary

Daily Weather History Graph

Daily Weather History Graph

Search for Another Location

Airport or City:

Trip Planner

Search our weather history database for the weather conditions in past years. The results will help you decide how hot, cold, wet, or windy it might be!

Date:

Astronomy

Oct. 04, 2011 Rise Set
Actual Time 6:52 AM PDT 6:22 PM PDT
Civil Twilight 6:21 AM PDT 6:53 PM PDT
Nautical Twilight 5:45 AM PDT 7:29 PM PDT
Astronomical Twilight 5:09 AM PDT 8:05 PM PDT
Moon 2:54 PM PDT (10/4) No Moon Set
Length of Visible Light 12h 32m
Length of Day
11h 30m
First Quarter, 57% of the Moon is Illuminated
Oct 4
First Quarter
Oct 11
Full
Oct 19
Last Quarter
Oct 26
New
Nov 2
First Quarter

Hourly Weather History & Observations

Time (PDT) Temp. Dew Point Humidity Pressure Visibility Wind Dir Wind Speed Gust Speed Precip Events Conditions
12:53 AM 50.0 °F 43.0 °F 77% 29.76 in 10.0 mi East 4.6 mph - N/A   Mostly Cloudy
1:53 AM 51.1 °F 43.0 °F 74% 29.75 in 10.0 mi Calm Calm - N/A   Mostly Cloudy
2:53 AM 53.1 °F 42.1 °F 66% 29.70 in 10.0 mi Calm Calm - N/A   Overcast
3:53 AM 53.6 °F 44.6 °F 72% 29.75 in 10.0 mi WSW 6.9 mph - N/A Rain Light Rain
4:53 AM 52.0 °F 44.1 °F 74% 29.72 in 10.0 mi Calm Calm - 0.01 in   Overcast
5:53 AM 52.0 °F 44.1 °F 74% 29.72 in 10.0 mi Calm Calm - 0.00 in Rain Light Rain
6:53 AM 53.1 °F 45.0 °F 74% 29.74 in 10.0 mi SSW 6.9 mph - N/A   Overcast
7:53 AM 51.8 °F 44.6 °F 76% 29.77 in 10.0 mi WSW 6.9 mph - N/A Rain Light Rain
8:22 AM 51.8 °F 46.4 °F 82% 29.77 in 7.0 mi Calm Calm - 0.02 in Rain Light Rain
8:53 AM 51.1 °F 46.9 °F 86% 29.77 in 6.0 mi Calm Calm - 0.04 in Rain Light Rain
9:53 AM 51.1 °F 48.0 °F 89% 29.77 in 10.0 mi Calm Calm - 0.00 in   Overcast
10:53 AM 51.1 °F 48.0 °F 89% 29.76 in 10.0 mi ESE 8.1 mph - N/A   Overcast
11:53 AM 52.0 °F 48.0 °F 86% 29.75 in 10.0 mi SE 4.6 mph - 0.01 in Rain Light Rain
12:02 PM 51.8 °F 48.2 °F 88% 29.75 in 10.0 mi SSE 6.9 mph - 0.00 in Rain Light Rain
12:09 PM 51.8 °F 48.2 °F 88% 29.75 in 10.0 mi SSE 6.9 mph - 0.01 in Rain Light Rain
12:53 PM 53.1 °F 48.0 °F 83% 29.74 in 10.0 mi South 9.2 mph - 0.01 in Rain Light Rain
1:00 PM 53.6 °F 48.2 °F 82% 29.74 in 10.0 mi South 6.9 mph - 0.01 in Rain Light Rain
1:25 PM 53.6 °F 48.2 °F 82% 29.73 in 10.0 mi SSE 5.8 mph - 0.01 in   Overcast
1:53 PM 55.0 °F 48.9 °F 80% 29.71 in 10.0 mi SSE 6.9 mph - 0.01 in   Mostly Cloudy
2:53 PM 55.4 °F 48.2 °F 77% 29.72 in 10.0 mi Variable 3.5 mph - N/A   Overcast
3:00 PM 55.4 °F 46.4 °F 72% 29.71 in 10.0 mi SW 5.8 mph - N/A   Overcast
3:53 PM 55.9 °F 46.9 °F 72% 29.70 in 10.0 mi SSE 6.9 mph - N/A   Mostly Cloudy
4:53 PM 55.4 °F 44.6 °F 67% 29.68 in 10.0 mi SSE 3.5 mph - N/A   Scattered Clouds
5:53 PM 54.0 °F 46.0 °F 75% 29.66 in 10.0 mi East 6.9 mph - N/A   Mostly Cloudy
6:53 PM 52.0 °F 46.0 °F 80% 29.64 in 10.0 mi ENE 4.6 mph - N/A   Partly Cloudy
7:53 PM 51.1 °F 46.0 °F 83% 29.64 in 10.0 mi Calm Calm - N/A   Scattered Clouds
8:53 PM 48.9 °F 45.0 °F 86% 29.62 in 10.0 mi Calm Calm - N/A   Clear
9:53 PM 46.9 °F 44.1 °F 90% 29.61 in 10.0 mi Calm Calm - N/A   Clear
10:53 PM 46.0 °F 44.1 °F 93% 29.59 in 10.0 mi Calm Calm - N/A   Clear
11:53 PM 46.4 °F 44.6 °F 93% 29.56 in 10.0 mi Calm Calm - N/A   Clear